Regional Weather Roundup
Issued by NWS Mobile, AL

Home | Current Version | Previous Version | Text Only | Print | Product List | Glossary On
Versions: 1 2 3 4 5 6 7 8 9 10 11 12 13 14 15 16 17 18 19 20 21 22 23 24 25 26 27 28 29 30 31 32 33 34 35 36 37 38 39 40 41 42 43 44 45 46 47 48 49 50
000
ASUS44 KMOB 211310
RWRMOB
REGIONAL WEATHER ROUNDUP
NATIONAL WEATHER SERVICE MOBILE AL
800 AM CDT THU AUG 21 2014

NOTE: "FAIR" INDICATES FEW OR NO CLOUDS BELOW 12,000 FEET WITH NO
      SIGNIFICANT WEATHER AND/OR OBSTRUCTIONS TO VISIBILITY.

  * THESE STATIONS ARE PART OF THE UNIVERSITY OF SOUTH ALABAMA
    MESONET AND ARE NOT UNDER NWS OR FAA QUALITY CONTROL.

ALZ061>064-211400-
COASTAL ALABAMA

CITY           SKY/WX    TMP DP  RH WIND       PRES   REMARKS
MOBILE REG APT MOSUNNY   80  78  94 NW3       30.16R
BROOKLEY FIELD SUNNY     81  79  94 N3        30.16R
USA CAMPUS*    NOT AVBL
DOG RIVER*     NOT AVBL


CITY           SKY/WX    TMP DP  RH WIND       PRES   REMARKS
MOUNT VERNON*  NOT AVBL
SARALAND*      NOT AVBL
BAY MINETTE*   NOT AVBL
LOXLEY*        NOT AVBL
ROBERTSDALE*   NOT AVBL
FAIRHOPE*      NOT AVBL
ELBERTA*       NOT AVBL
FOLEY*         NOT AVBL
GRAND BAY*     NOT AVBL
DAUPHIN ISLND* NOT AVBL
BON SCOUR NWR* NOT AVBL
GULF SHORES    SUNNY     79  77  95 CALM      30.15R

$$

ALZ051>060-211400-
INTERIOR SOUTHWEST AND SOUTH CENTRAL ALABAMA

CITY           SKY/WX    TMP DP  RH WIND       PRES   REMARKS
GREENVILLE     SUNNY     79  74  84 W3        30.16R
EVERGREEN      SUNNY     80  76  87 CALM      30.16R
CASTLEBERRY*   NOT AVBL
ATMORE*        NOT AVBL
DIXIE*         NOT AVBL
ANDALUSIA/OPP  SUNNY     81  75  82 NW5       30.16R
ANDALUSIA*     NOT AVBL
FLORALA APT    SUNNY     79  74  84 CALM      30.17R
FLORALA*       NOT AVBL

$$

FLZ001>006-211400-
WESTERN FLORIDA PANHANDLE

CITY           SKY/WX    TMP DP  RH WIND       PRES   REMARKS
PENSACOLA      MOSUNNY   82  77  84 NW7       30.15R
NAS PENSACOLA  PTSUNNY   81  78  91 NW3       30.14R
MILTON         MOSUNNY   80  75  84 NW5       30.16R
WHTNG S FIELD  MOSUNNY   81  76  84 NW5       30.15R


CITY           SKY/WX    TMP DP  RH WIND       PRES   REMARKS
WALNUT HILL*   NOT AVBL
JAY*           NOT AVBL
DUKE FIELD     SUNNY     78  78 100 N3        30.16R
CRESTVIEW      SUNNY     78  75  90 CALM      30.17R
VALPARAISO     PTSUNNY   81  77  88 W5        30.15R
DESTIN         SUNNY     85  78  80 N7        30.15R HX  96

$$

MSZ076-079-211400-
INTERIOR SOUTHEAST MISSISSIPPI

CITY           SKY/WX    TMP DP  RH WIND       PRES   REMARKS
LEAKESVILLE*   NOT AVBL
AGRICOLA*      NOT AVBL

$$

MARINE OBSERVATIONS

STATION/POSITION TIME  TEMP    WIND        PRES    WAVE
                       AIR SEA DIR/SP/G            HT/PER
                 (UTC) (F)     (DEG/KT/KT) (MB)    (FT/S)
PASCAGOULA       1300   82     340/  5/  5 1020.5R
PETIT BOIS ISLND 1300   83     350/  7/  8 1020.9R
GRAND BAY        1200   78     350/  3     1021.0S
KATRINA CUT      1200   85     270/  7     1021.0R
CEDAR POINT      1200   81     350/  5     1020.6R
E DAUPHIN ISLAND 1200   83     260/  4/  6 1020.2R
MIDDLE BAY LIGHT 1200   84     310/  9     1019.6S
USCG MOBILE BAY  1300   82 86  340/  3/  5 1020.0R
STATE DOCKS      1300   83 87              1020.7R
MEAHER PARK      1200   81      10/  3     1020.6R
WEEKS BAY        1200   72                   N/A
FORT MORGAN      1300   85     300/  6/  7 1020.3R
12 S ORANGE BCH  1300   84 85  320/  6/  8 1020.8R   1/ 6
PENSACOLA BAY    1300   83 87  320/  4/  5 1021.0R
64 S DAUPHIN ISL 1227   86 87  220/  2/  4 1020.9R
67 S FORT MORGAN 1200   84                 1020.3R

$$

SELECTED LOCATIONS ACROSS THE REGION

CITY           SKY/WX    TMP DP  RH WIND       PRES   REMARKS
NEW ORLEANS    PTSUNNY   83  76  79 CALM      30.13R
GULFPORT       SUNNY     82  77  84 N3        30.14R
PASCAGOULA AP  SUNNY     81  77  88 N3        30.14R
PASCAGOULA*    NOT AVBL
HATTIESBURG    SUNNY     78  74  87 CALM      30.16R
LAUREL         SUNNY     77  72  83 W5        30.16S
MERIDIAN       SUNNY     77  72  84 CALM      30.15S
JACKSON        SUNNY     78  72  81 CALM      30.15R
MONTGOMERY     SUNNY     79  75  87 CALM      30.15R
TROY           SUNNY     76  73  91 CALM      30.17R
KINSTON*       NOT AVBL
GENEVA*        NOT AVBL
ASHFORD*       NOT AVBL
DOTHAN         MOSUNNY   79  74  84 NW6       30.19R
PANAMA CITY    SUNNY     81  76  84 NW6       30.14R

$$



USA.gov is the U.S. government's official web portal to all federal, state and local government web resources and services.